{"data":{"norad_id":42691,"intl_designator":"2017-023A","name":"KOREASAT 7","alt_names":[],"object_type":"PAYLOAD","status":"ACTIVE","operator":null,"country":"SKOR","launch_date":"2017-05-04","launch_site_code":"FRGUI","launch_vehicle":null,"mission":null,"orbit_class":"UNKNOWN","rcs_meters":null,"size_class":null,"mass_kg":null,"dimensions":null,"purposes":["comms"],"wikipedia_slug":null,"has_3d_model":false,"image_url":null,"decayed_at":null,"tle_current":{"epoch":"2026-05-25T00:52:21.122112Z","epoch_age_seconds":72009,"freshness":"FRESH","line1":"1 42691U 17023A   26145.03635558 -.00000364  00000+0  00000+0 0  9990","line2":"2 42691   0.0199 344.0125 0000749  77.7515 309.8600  1.00272295 33138","mean_motion":1.00272295,"eccentricity":7.49e-5,"inclination_deg":0.0199,"raan_deg":344.0125,"arg_perigee_deg":77.7515,"mean_anomaly_deg":309.86,"bstar":0,"rev_number":3313,"period_min":1436.0895998242,"perigee_km":35783.293862568,"apogee_km":35789.610117998,"semimajor_km":42164.588990283,"source":"CELESTRAK","updated_at":"2026-05-25T13:38:14.043361Z"}}}